Ypsilanti, MI

8:54 PM EST on February 11, 2016 (GMT -0500)
Willow Run

Weather History for KYIP - November, 2011

Change the Weather History Date:

Sunday, November 6, 2011

  Actual Average Record
Temperature  
Mean Temperature 48 °F -  
Max Temperature 66 °F 51 °F 75 °F (1975)
Min Temperature 30 °F 35 °F 24 °F (1973)
Degree Days  
Heating Degree Days 17    
Moisture  
Dew Point 34 °F    
Average Humidity 61    
Maximum Humidity 85    
Minimum Humidity 42    
Precipitation  
Precipitation 0.00 in - - ()
Sea Level Pressure  
Sea Level Pressure 30.20 in    
Wind  
Wind Speed 6 mph (SSW)    
Max Wind Speed 21 mph    
Max Gust Speed 29 mph    
Visibility 10 miles    
Events      
Averages and records for this station are not official NWS values.
T = Trace of Precipitation, MM = Missing Value Source: NWS Daily Summary

Daily Weather History Graph

Daily Weather History Graph

Search for Another Location

Airport or City:

Trip Planner

Search our weather history database for the weather conditions in past years. The results will help you decide how hot, cold, wet, or windy it might be!

Date:

Astronomy

Nov. 06, 2011 Rise Set
Actual Time 7:13 AM EST 5:21 PM EST
Civil Twilight 6:43 AM EST 5:51 PM EST
Nautical Twilight 6:10 AM EST 6:24 PM EST
Astronomical Twilight 5:37 AM EST 6:57 PM EST
Moon 3:08 PM EST (11/6) 3:14 AM EST (11/6)
Length of Visible Light 11h 07m
Length of Day
10h 08m
Waxing Gibbous, 85% of the Moon is Illuminated
Nov 6
Waxing Gibbous
Nov 10
Full
Nov 18
Last Quarter
Nov 25
New
Dec 2
First Quarter

Hourly Weather History & Observations

Time (EST) Temp. Windchill Dew Point Humidity Pressure Visibility Wind Dir Wind Speed Gust Speed Precip Events Conditions
12:53 AM 30.9 °F - 26.1 °F 82% 30.23 in 8.0 mi Calm Calm - N/A   Clear
1:53 AM 30.9 °F - 26.1 °F 82% 30.23 in 8.0 mi Calm Calm - N/A   Clear
1:53 AM 30.9 °F - 27.0 °F 85% 30.22 in 7.0 mi Calm Calm - N/A   Clear
2:53 AM 32.0 °F - 27.0 °F 82% 30.22 in 8.0 mi Calm Calm - N/A   Clear
3:53 AM 30.9 °F - 26.1 °F 82% 30.23 in 10.0 mi Calm Calm - N/A   Clear
4:53 AM 30.9 °F - 25.0 °F 79% 30.25 in 10.0 mi Calm Calm - N/A   Clear
5:53 AM 30.9 °F - 26.1 °F 82% 30.25 in 10.0 mi Calm Calm - N/A   Clear
6:53 AM 30.9 °F - 25.0 °F 79% 30.26 in 10.0 mi Calm Calm - N/A   Clear
7:53 AM 36.0 °F 32.1 °F 27.0 °F 70% 30.26 in 10.0 mi South 4.6 mph - N/A   Clear
8:53 AM 44.1 °F 39.0 °F 32.0 °F 63% 30.26 in 10.0 mi South 9.2 mph - N/A   Clear
9:53 AM 50.0 °F - 34.0 °F 54% 30.25 in 10.0 mi South 9.2 mph - N/A   Clear
10:53 AM 55.9 °F - 37.0 °F 49% 30.22 in 10.0 mi South 11.5 mph - N/A   Clear
11:53 AM 61.0 °F - 39.9 °F 46% 30.21 in 10.0 mi South 12.7 mph - N/A   Clear
12:53 PM 64.0 °F - 42.1 °F 45% 30.18 in 10.0 mi South 17.3 mph - N/A   Clear
1:53 PM 64.9 °F - 42.1 °F 43% 30.15 in 10.0 mi South 18.4 mph - N/A   Clear
2:53 PM 66.0 °F - 42.1 °F 42% 30.14 in 10.0 mi SSW 20.7 mph 28.8 mph N/A   Clear
3:53 PM 64.0 °F - 42.1 °F 45% 30.12 in 10.0 mi South 19.6 mph 26.5 mph N/A   Clear
4:53 PM 62.1 °F - 41.0 °F 46% 30.13 in 10.0 mi SSW 15.0 mph - N/A   Clear
5:53 PM 55.4 °F - 39.2 °F 54% 30.14 in 10.0 mi South 8.1 mph - N/A   Clear
6:53 PM 55.0 °F - 39.9 °F 57% 30.16 in 10.0 mi South 9.2 mph - N/A   Clear
7:53 PM 57.9 °F - 39.0 °F 49% 30.16 in 10.0 mi South 12.7 mph - N/A   Overcast
8:53 PM 59.0 °F - 37.0 °F 44% 30.14 in 10.0 mi South 17.3 mph - N/A   Overcast
9:53 PM 57.9 °F - 37.0 °F 46% 30.16 in 10.0 mi SSW 15.0 mph 23.0 mph N/A   Overcast
10:53 PM 57.0 °F - 37.0 °F 47% 30.16 in 10.0 mi SSW 17.3 mph - N/A   Overcast